Location: Recife
(8.0585°S, 34.8848°W)
Time: 13:01:02
(UTC-03:00)

Vanguard 2 - Pass Details

Date: 17 April 2026
Orbit: 553 x 2895 km, 32.9° (Epoch: 13 May)

Event Time Altitude Azimuth Distance (km) Brightness Sun altitude
Rises 19:31:06 0° 299° (WNW) 4,629 12.4 -33.8°
Reaches altitude 10° 19:33:42 10° 298° (WNW) 3,910 11.8 -34.4°
Maximum altitude 19:44:51 77° 213° (SSW) 2,341 9.7 -37.2°
Enters shadow 19:48:32 59° 146° (SE) 2,752 9.9 -38.1°
